Vorticity
-1 16 23 22 -37 53 -4 15 13 7 -0 -0 3 6 6 7 6 7 6 5 9 6
-7 10 27 30 -28 -21 35 25 9 26 6 6 3 4 5 7 4 6 6 5 -2 -1
8 14 5 -1 19 18 14 23 43 -7 32 87 6 -0 8 -1 3 -4 -2 -0 36 16
10 7 4 13 6 5 5 2 18 9 -9 21 32 46 80 -3 31 43 44 52 2 3
17 1 23 -8 10 17 17 3 2 19 20 12 13 9 4 18 19 -7 10 1 5 -1
-26 8 7 5 -2 12 -4 1 13 6 -14 -9 -1 3 -4 4 -1 5 8 10 23 13
19 9 13 -2 18 20 2 -0 18 11 -9 9 15 -11 9 -2 -5 2 32 5 4 7
20 27 10 12 13 -5 7 16 28 7 -4 21 11 28 6 22 12 -16 -5 8 2 0
11 14 17 16 8 9 -10 -5 5 16 1 -18 0 17 -13 -34 -15 4 30 1 10 2
8 11 13 14 14 14 5 16 13 5 6 23 -2 21 6 19 24 14 18 26 17 3
7 5 5 7 9 11 15 10 14 13 12 13 1 23 1 10 16 14 15 2 10 -2
6 8 8 7 6 7 7 4 12 16 7 1 3 14 -3 -7 -21 3 16 12 12 12
10 12 9 7 7 6 5 5 6 4 6 9 11 10 12 11 12 11 8 6 -1 -0
7 6 7 9 9 11 12 13 13 10 11 13 13 13 11 10 10 14 17 15 14 11
Height
5651 5658 5666 5672 5674 5680 5688 5693 5699 5705 5711 5716 5722 5727 5731 5735 5739 5741 5744 5746 5748 5749
5652 5656 5659 5666 5669 5675 5680 5687 5691 5697 5702 5705 5710 5716 5720 5724 5728 5729 5731 5733 5734 5735
5647 5654 5657 5659 5663 5669 5675 5679 5686 5689 5692 5699 5703 5705 5709 5712 5714 5715 5718 5720 5723 5725
5641 5647 5651 5655 5657 5664 5669 5673 5675 5680 5685 5689 5694 5696 5699 5705 5706 5707 5709 5711 5713 5713
5639 5643 5648 5650 5653 5659 5661 5665 5670 5673 5674 5679 5685 5686 5689 5693 5696 5697 5698 5700 5703 5703
5633 5638 5641 5646 5649 5653 5657 5661 5662 5665 5669 5672 5673 5679 5681 5683 5686 5688 5689 5691 5691 5691
5628 5632 5635 5639 5642 5646 5650 5652 5656 5659 5662 5665 5667 5670 5671 5674 5675 5677 5677 5679 5678 5678
5627 5629 5633 5633 5635 5638 5641 5645 5648 5651 5654 5656 5657 5660 5662 5662 5663 5664 5663 5663 5665 5666
5624 5627 5628 5630 5631 5634 5637 5638 5642 5643 5644 5646 5647 5649 5651 5650 5650 5651 5653 5653 5655 5654
5619 5621 5622 5626 5628 5631 5631 5633 5633 5635 5636 5636 5640 5642 5641 5640 5640 5641 5643 5642 5642 5641
5615 5616 5618 5620 5620 5622 5623 5624 5625 5626 5628 5630 5631 5630 5630 5631 5631 5631 5631 5631 5630 5628
5607 5607 5609 5611 5611 5614 5617 5617 5618 5618 5618 5619 5619 5620 5619 5619 5619 5619 5619 5618 5617 5615
5599 5600 5601 5603 5604 5606 5606 5606 5608 5608 5608 5608 5609 5608 5608 5607 5606 5606 5607 5605 5604 5603
5591 5592 5593 5594 5594 5594 5595 5595 5596 5596 5596 5597 5597 5597 5595 5595 5594 5593 5592 5591 5590 5589